STARLINK-36352, 67567

Orbit data source: Space-Track

STARLINK-36352, 67567 is a payload satellite owned by SpaceX/Seattle (US) in SSO that was launched on Sun, 25 Jan 2026 UTC via an FALCON 9 launch vehicle from the Air Force Western Test Range (AFWTR). Payload-class satellites include a variety of spacecraft equipped with specific instruments for various scientific and technological missions. These include communications satellites like Starlink; space stations such as the ISS; scientific satellites like the Hubble; Earth observation satellites from companies like Planet Labs, Umbra, and HawkEye 360; GPS; miniature CubeSats for education and research; and military/defense satellites.

Loading next visibility...
Identifier
67567, 2026-016G
Orbit
SSO
Country
Flag of USUS
Related business
Manufacturer
SpaceX/Seattle
Mission
Operational Commercial Communications
Bus & Motor
STARLINK V2MO, Unknown motor
Mass
575 kg wet, ~530 kg dry
Launch date (UTC)
2026-01-25 (5 months ago)
Launch vehicle
FALCON 9
Launch site
Air Force Western Test Range (AFWTR)
Object type
Payload
Rocket body
Debris
Shape & HBR
Box + 2 Pan, 17.7 m
Radar Cross Section
36.964 m², Large (>1 m²)

Expand to show TLE details & history
Last TLE update: 1 day ago

TLE from 1 day ago
0 STARLINK-36352
1 67567U 26016G   26170.71824388  .00015471  00000-0  48039-3 0  9998
2 67567  97.2830 230.7355 0000220 177.4127 182.7117 15.33456216 22502
Epoch: 2026-06-19T17:14Z
TLE epoch observation values (Epoch: 2026-06-19T17:14:16.271Z)
Latitude
-0°
Longitude
64.2245°
Altitude
468.772 km
Speed
7.632 km/s
True Right ascension
15h 22m 56s
True Declination
0° 00' 00"
Sunlit
Object was in full shadow at epoch
Visualization orbit readout
Latitude
Unknown
Longitude
Unknown
Altitude
Unknown
Speed
Unknown
Apparent Right ascension
Unknown
Apparent Declination
Unknown
Sunlit
N/A
Visualization observer readout
Local Sidereal Time
10:19:01
Azimuth
Unknown
Elevation
Unknown
Doppler factor
Unknown
Orbital elements
Apogee altitude
462.603 km
Perigee altitude
462.302 km
Semi-major axis
6,840.589 km
Eccentricity
0.00002
Inclination
97.283°
RAAN
230.7355°
Arg. of periapsis
177.4127°
True anomaly
182.71158°
Mean anomaly
182.7117°
Eccentric anomaly
182.71164°
Mean motion
3.83621 °/min
Orbital period
93.84 mins
BSTAR
0.00048039
Loading maneuver chart data...
Computing Atmospheric mass density...
Loading historical data...
Loading historical data...
Loading historical data...
Loading historical data...
Loading historical data...
Loading historical data...
Loading historical data...

Documentation

Showing up to 5 results
|